Weather History for Omaha Millard, NE

Change the Weather History Date:

Wednesday, November 21, 2012

  Actual Average (KOMA) Record (KOMA)
Temperature  
Mean Temperature 54 °F 36 °F  
Max Temperature 71 °F 46 °F 72 °F (2012)
Min Temperature 36 °F 26 °F -3 °F (1937)
Degree Days  
Heating Degree Days 12 29  
Month to date heating degree days 499  
Since 1 July heating degree days 984  
Cooling Degree Days 0 0  
Month to date cooling degree days 0  
Year to date cooling degree days 1112  
Growing Degree Days 4 (Base 50)    
Moisture  
Dew Point 41 °F    
Average Humidity 62    
Maximum Humidity 88    
Minimum Humidity 34    
Precipitation  
Precipitation 0.00 in 0.05 in 0.83 in (1898)
Month to date precipitation 1.21  
Year to date precipitation 29.15  
Snow  
Snow 0.00 in 0.10 in - ()
Month to date snowfall 1.2  
Since 1 July snowfall 1.5  
Snow Depth -    
Sea Level Pressure  
Sea Level Pressure 29.99 in    
Wind  
Wind Speed 5 mph (South)    
Max Wind Speed 18 mph    
Max Gust Speed 30 mph    
Visibility 10 miles    
Events      
T = Trace of Precipitation, MM = Missing Value Source: NWS Daily Summary

Daily Weather History Graph

Daily Weather History Graph

Search for Another Location

Airport:

Trip Planner

Search our weather history database for the weather conditions in past years. The results will help you decide how hot, cold, wet, or windy it might be!

Date:

Astronomy

Nov. 21, 2012 Rise Set
Actual Time 7:20 AM CST 5:00 PM CST
Civil Twilight 6:50 AM CST 5:30 PM CST
Nautical Twilight 6:16 AM CST 6:04 PM CST
Astronomical Twilight 5:43 AM CST 6:37 PM CST
Moon 1:20 PM CST (11/21) 12:36 AM CST (11/21)
Length of Visible Light 10h 40m
Length of Day
9h 40m
First Quarter, 62% of the Moon is Illuminated
Nov 21
First Quarter
Nov 28
Full
Dec 6
Last Quarter
Dec 13
New
Dec 19
First Quarter

Hourly Weather History & Observations

Time (CST) Temp. Windchill Dew Point Humidity Pressure Visibility Wind Dir Wind Speed Gust Speed Precip Events Conditions
12:15 AM 41.0 °F - 34.7 °F 78% 30.12 in 10.0 mi Calm Calm - N/A   Clear
12:35 AM 41.5 °F - 34.9 °F 77% 30.12 in 10.0 mi Calm Calm - N/A   Clear
12:55 AM 38.1 °F - 34.0 °F 85% 30.12 in 10.0 mi Calm Calm - N/A   Clear
1:15 AM 38.8 °F - 34.2 °F 83% 30.12 in 10.0 mi Calm Calm - N/A   Clear
1:35 AM 37.9 °F - 33.8 °F 85% 30.12 in 10.0 mi Calm Calm - N/A   Clear
1:55 AM 38.5 °F - 34.2 °F 84% 30.11 in 10.0 mi Calm Calm - N/A   Clear
2:15 AM 39.2 °F 37.0 °F 34.3 °F 83% 30.11 in 10.0 mi SE 3.5 mph - N/A   Clear
2:35 AM 38.5 °F - 33.4 °F 82% 30.11 in 10.0 mi Calm Calm - N/A   Clear
2:55 AM 38.5 °F - 34.2 °F 84% 30.11 in 10.0 mi Calm Calm - N/A   Clear
3:15 AM 39.2 °F 35.9 °F 34.3 °F 83% 30.10 in 10.0 mi SE 4.6 mph - N/A   Clear
3:35 AM 39.4 °F 37.2 °F 34.5 °F 83% 30.10 in 10.0 mi SE 3.5 mph - N/A   Clear
3:55 AM 38.5 °F - 34.2 °F 84% 30.10 in 10.0 mi Calm Calm - N/A   Clear
4:15 AM 37.8 °F - 34.0 °F 86% 30.10 in 10.0 mi Calm Calm - N/A   Clear
4:35 AM 36.9 °F 34.3 °F 33.6 °F 88% 30.10 in 10.0 mi SSE 3.5 mph - N/A   Clear
4:55 AM 38.5 °F 35.0 °F 34.5 °F 86% 30.09 in 10.0 mi SE 4.6 mph - N/A   Clear
5:15 AM 38.3 °F 34.8 °F 34.2 °F 85% 30.10 in 10.0 mi SSE 4.6 mph - N/A   Clear
5:35 AM 38.1 °F 34.6 °F 34.0 °F 85% 30.09 in 10.0 mi SSE 4.6 mph - N/A   Clear
5:55 AM 38.7 °F 36.3 °F 34.2 °F 84% 30.09 in 10.0 mi SSE 3.5 mph - N/A   Clear
6:15 AM 37.9 °F 34.4 °F 34.0 °F 86% 30.09 in 10.0 mi SSE 4.6 mph - N/A   Clear
6:35 AM 38.3 °F 35.9 °F 34.2 °F 85% 30.09 in 10.0 mi SSE 3.5 mph - N/A   Clear
6:55 AM 38.3 °F 34.8 °F 34.2 °F 85% 30.09 in 10.0 mi SE 4.6 mph - N/A   Clear
7:15 AM 37.8 °F 33.3 °F 33.8 °F 86% 30.09 in 10.0 mi SE 5.8 mph - N/A   Clear
7:35 AM 38.1 °F 33.7 °F 34.7 °F 87% 30.09 in 10.0 mi SSE 5.8 mph - N/A   Clear
7:55 AM 39.0 °F 34.8 °F 35.2 °F 86% 30.09 in 10.0 mi SE 5.8 mph - N/A   Clear
8:15 AM 40.8 °F 38.8 °F 36.5 °F 85% 30.08 in 10.0 mi ESE 3.5 mph - N/A   Clear
8:35 AM 43.2 °F - 37.8 °F 81% 30.08 in 10.0 mi Calm Calm - N/A   Clear
8:55 AM 47.1 °F - 40.6 °F 78% 30.08 in 10.0 mi Calm Calm - N/A   Clear
9:15 AM 53.6 °F - 42.6 °F 66% 30.08 in 10.0 mi South 4.6 mph - N/A   Clear
9:35 AM 56.3 °F - 43.7 °F 63% 30.07 in 10.0 mi South 5.8 mph - N/A   Clear
9:55 AM 59.0 °F - 44.6 °F 59% 30.07 in 10.0 mi SSW 10.4 mph - N/A   Clear
10:15 AM 60.3 °F - 44.1 °F 55% 30.06 in 10.0 mi SSW 11.5 mph 16.1 mph N/A   Clear
10:35 AM 61.7 °F - 44.4 °F 53% 30.06 in 10.0 mi SSW 11.5 mph 19.6 mph N/A   Clear
10:55 AM 63.0 °F - 45.1 °F 52% 30.06 in 10.0 mi South 3.5 mph 18.4 mph N/A   Clear
11:15 AM 64.6 °F - 45.3 °F 50% 30.04 in 10.0 mi SSW 15.0 mph 20.7 mph N/A   Clear
11:35 AM 66.0 °F - 45.7 °F 48% 30.03 in 10.0 mi SSW 9.2 mph 20.7 mph N/A   Clear
11:55 AM 67.3 °F - 46.0 °F 46% 30.02 in 10.0 mi SSW 18.4 mph 27.6 mph N/A   Clear
12:15 PM 68.0 °F - 45.7 °F 45% 30.01 in 10.0 mi South 17.3 mph 26.5 mph N/A   Clear
12:35 PM 69.1 °F - 46.0 °F 44% 29.99 in 10.0 mi SSW 15.0 mph 24.2 mph N/A   Clear
12:55 PM 69.8 °F - 45.5 °F 42% 29.98 in 10.0 mi SSW 18.4 mph 24.2 mph N/A   Clear
1:15 PM 70.7 °F - 45.0 °F 40% 29.96 in 10.0 mi South 18.4 mph 25.3 mph N/A   Clear
1:35 PM 71.6 °F - 43.5 °F 36% 29.95 in 10.0 mi SSW 16.1 mph 23.0 mph N/A   Clear
1:55 PM 71.6 °F - 43.5 °F 36% 29.94 in 10.0 mi SSW 16.1 mph 26.5 mph N/A   Clear
2:15 PM 71.6 °F - 42.8 °F 35% 29.93 in 10.0 mi SSW 12.7 mph 29.9 mph N/A   Clear
2:35 PM 71.6 °F - 42.6 °F 35% 29.92 in 10.0 mi SSW 11.5 mph 29.9 mph N/A   Clear
2:55 PM 71.8 °F - 42.4 °F 35% 29.91 in 10.0 mi South 17.3 mph 24.2 mph N/A   Clear
3:15 PM 71.6 °F - 41.7 °F 34% 29.90 in 10.0 mi SSW 15.0 mph 24.2 mph N/A   Clear
3:35 PM 71.6 °F - 42.3 °F 35% 29.89 in 10.0 mi South 12.7 mph 24.2 mph N/A   Clear
3:55 PM 71.1 °F - 42.8 °F 36% 29.89 in 10.0 mi South 16.1 mph 24.2 mph N/A   Clear
4:15 PM 70.3 °F - 42.8 °F 37% 29.89 in 10.0 mi South 12.7 mph 23.0 mph N/A   Clear
4:35 PM 69.3 °F - 42.6 °F 38% 29.88 in 10.0 mi South 10.4 mph 16.1 mph N/A   Clear
4:55 PM 68.7 °F - 43.3 °F 40% 29.88 in 10.0 mi South 11.5 mph 18.4 mph N/A   Clear
5:15 PM 67.8 °F - 43.5 °F 41% 29.87 in 10.0 mi South 9.2 mph 16.1 mph N/A   Clear
5:35 PM 66.7 °F - 43.7 °F 43% 29.88 in 10.0 mi South 9.2 mph - N/A   Clear
5:55 PM 66.6 °F - 43.3 °F 43% 29.88 in 10.0 mi South 10.4 mph - N/A   Clear
6:15 PM 65.3 °F - 43.3 °F 45% 29.89 in 10.0 mi South 6.9 mph - N/A   Clear
6:35 PM 65.1 °F - 43.7 °F 46% 29.89 in 10.0 mi South 10.4 mph - N/A   Clear
6:55 PM 64.8 °F - 44.6 °F 48% 29.88 in 10.0 mi South 8.1 mph - N/A   Clear
7:15 PM 64.0 °F - 44.8 °F 50% 29.88 in 10.0 mi SSE 9.2 mph - N/A   Clear
7:35 PM 63.0 °F - 45.0 °F 52% 29.87 in 10.0 mi SSE 9.2 mph - N/A   Clear
7:55 PM 61.0 °F - 45.1 °F 56% 29.88 in 10.0 mi SSE 6.9 mph - N/A   Clear
8:15 PM 60.8 °F - 45.9 °F 58% 29.87 in 10.0 mi SSE 6.9 mph - N/A   Clear
8:35 PM 60.3 °F - 46.0 °F 59% 29.86 in 10.0 mi SSE 9.2 mph - N/A   Clear
8:55 PM 60.4 °F - 46.4 °F 60% 29.86 in 10.0 mi SSE 10.4 mph - N/A   Clear
9:15 PM 60.3 °F - 46.4 °F 60% 29.86 in 10.0 mi SSE 8.1 mph - N/A   Clear
9:35 PM 59.9 °F - 46.2 °F 61% 29.86 in 10.0 mi SSE 9.2 mph 16.1 mph N/A   Clear
9:55 PM 59.9 °F - 46.2 °F 61% 29.85 in 10.0 mi SSE 9.2 mph - N/A   Clear
10:15 PM 59.9 °F - 46.2 °F 61% 29.84 in 10.0 mi SSE 9.2 mph - N/A   Clear
10:35 PM 59.5 °F - 46.0 °F 61% 29.83 in 10.0 mi SSE 8.1 mph - N/A   Clear
10:55 PM 59.4 °F - 46.0 °F 61% 29.83 in 10.0 mi SSE 6.9 mph - N/A   Clear
11:15 PM 59.0 °F - 45.9 °F 62% 29.82 in 10.0 mi SSE 8.1 mph - N/A   Clear
11:35 PM 58.8 °F - 45.9 °F 62% 29.81 in 10.0 mi SSE 8.1 mph - N/A   Clear
11:55 PM 58.3 °F - 45.5 °F 62% 29.81 in 10.0 mi SSE 8.1 mph - N/A   Clear